This is the latest recevied weather packets stored in our database for station/object IN3APK-3. If no packets are shown the sender has not sent any weather packets the latest 10 day(s).
| Time | Temp. | Humidity | Pressure | Rain* | Wind** | Luminosity | Snow |
|---|---|---|---|---|---|---|---|
| 1777576749 | 10° C | 42% | 1017.3 hPa | - | - | - | - |
| 1777576096 | 10° C | 42% | 1017.2 hPa | - | - | - | - |
| 1777575444 | 10.56° C | 41% | 1016.9 hPa | - | - | - | - |
| 1777574792 | 11.11° C | 41% | 1016.7 hPa | - | - | - | - |
| 1777574140 | 11.67° C | 40% | 1016.5 hPa | - | - | - | - |
| 1777573489 | 12.22° C | 40% | 1016.3 hPa | - | - | - | - |
| 1777572186 | 15° C | 37% | 1015.8 hPa | - | - | - | - |
| 1777571536 | 17.22° C | 35% | 1015.5 hPa | - | - | - | - |
| 1777570884 | 18.33° C | 34% | 1015.3 hPa | - | - | - | - |
| 1777569581 | 20° C | 32% | 1015 hPa | - | - | - | - |
| 1777568278 | 22.22° C | 30% | 1014.7 hPa | - | - | - | - |
| 1777567626 | 22.22° C | 30% | 1014.6 hPa | - | - | - | - |
| 1777566973 | 21.11° C | 29% | 1014.5 hPa | - | - | - | - |
| 1777566323 | 23.89° C | 28% | 1014.5 hPa | - | - | - | - |
| 1777565672 | 25.56° C | 27% | 1014.3 hPa | - | - | - | - |
| 1777565021 | 26.67° C | 28% | 1014.1 hPa | - | - | - | - |
| 1777564370 | 27.22° C | 28% | 1014.3 hPa | - | - | - | - |
| 1777563717 | 27.78° C | 27% | 1014.1 hPa | - | - | - | - |
| 1777563065 | 27.78° C | 27% | 1014 hPa | - | - | - | - |
| 1777562414 | 28.33° C | 27% | 1014 hPa | - | - | - | - |
| 1777561761 | 26.67° C | 28% | 1014.1 hPa | - | - | - | - |
| 1777561109 | 26.67° C | 27% | 1014.1 hPa | - | - | - | - |
| 1777560457 | 27.22° C | 27% | 1014.3 hPa | - | - | - | - |
| 1777559805 | 26.67° C | 28% | 1014.2 hPa | - | - | - | - |
| 1777558501 | 26.67° C | 28% | 1014.2 hPa | - | - | - | - |
* Rain since midnight (hover to see other rain measurements)
** Current wind speed in m/s (hover to see current wind gust speed)